[[{"header":{"parameterUnit":"m.s-1","parameterCategory":1,"la1":30.2991,"la2":30.254,"lo1":-89.0895,"lo2":-89.0444,"dy":0.0017,"dx":0.0017,"nx":28,"ny":28,"refTime":"2023-10-26T03:00:00:Z","depth":0,"parameterNumber":2,"parameterNumberName":"U-component_of_WINDS"},"data":[0,0,0,0,0,0,0,0,0,0,0,0,0,0,0,0,0,0,0,0,0,0,0,0,0,0,0,0,0,0,0,0,0,0,0,0,0,0,0,0,0,0,0,0,0,0,0,0,0,0,0,0,0,0,0,0,0,0,-4.9582,-4.9582,0,-4.961,-4.961,-4.961,-4.9515,-4.9512,-4.9509,-4.9506,-4.9533,-4.9537,-4.954,0,0,0,0,0,0,0,0,0,0,0,0,0,-4.9446,-4.9449,-4.9582,-4.9582,-4.9582,-4.961,-4.961,-4.961,-4.9515,-4.9512,-4.9508,-4.9505,-4.9532,-4.9536,-4.954,0,0,0,0,0,0,0,0,0,0,0,0,0,-4.9492,-4.945,-4.9581,-4.9538,-4.9535,-4.961,-4.961,-4.9611,-4.9516,-4.9512,-4.9507,-4.9503,-4.9531,-4.9536,-4.9541,-4.9659,0,0,-4.9556,-4.9559,0,0,0,0,0,0,0,0,-4.949,-4.9497,-4.9544,-4.9541,-4.9537,-4.9554,-4.9572,-4.9627,-4.9517,-4.9523,-4.9506,-4.9501,-4.9544,-4.9548,-4.9562,-4.966,-4.9661,-4.9557,-4.956,-4.9562,-4.9564,0,0,0,0,0,0,0,-4.9487,-4.9496,-4.9593,-4.9545,-4.9541,-4.9517,-4.9519,-4.9582,-4.9557,-4.9522,-4.9515,-4.952,-4.9541,-4.9558,-4.9562,-4.9661,-4.9557,-4.9561,-4.9564,-4.9566,-4.9859,-4.9863,0,0,0,0,0,0,-4.9489,-4.9494,-4.9592,-4.9593,-4.9503,-4.9523,-4.9525,-4.9553,-4.9556,-4.9553,-4.9524,-4.9516,-4.9551,-4.9556,-4.9563,-4.9701,-4.9562,-4.9567,-4.957,-4.9854,-4.986,-4.9865,0,0,0,0,0,0,-4.9487,-4.9499,-4.959,-4.9542,-4.9552,-4.953,-4.9562,-4.9556,-4.9572,-4.9557,-4.9552,-4.9545,-4.9548,-4.9556,-4.9636,-4.97,-4.9569,-4.9574,-4.9849,-4.9856,-4.9862,-4.9978,0,0,0,0,0,0,-4.9483,-4.9499,-4.9542,-4.9544,-4.9555,-4.9663,-4.9566,-4.956,-4.9582,-4.9571,-4.9576,-4.9573,-4.9545,-4.9629,-4.9641,-4.9705,-4.9578,-4.9843,-4.9852,-4.986,-4.9968,-4.9988,-5.0005,0,0,0,0,0,-4.9479,-4.9573,-4.9545,-4.9558,-4.9609,-4.9667,-4.9673,-4.964,-4.9587,-4.9631,-4.9622,-4.9572,-4.9692,-4.9638,-4.9651,-4.9717,-4.9838,-4.9849,-4.986,-4.996,-4.9984,-5.0004,0,0,0,0,0,0,-4.9578,-4.9572,-4.9541,-4.9639,-4.9655,-4.9651,-4.9705,-4.9667,-4.9697,-4.9685,-4.9643,-4.9645,-4.9733,-4.9733,-4.9673,-4.9832,-4.9756,-4.977,-4.9828,-4.9851,-4.9869,-4.9865,-4.9582,0,0,0,0,0,-4.9612,-4.966,-4.9652,-4.9739,-4.9748,-4.9726,-4.975,-4.9724,-4.9738,-4.9743,-4.974,-4.9755,-4.9797,-4.9824,-4.9861,-4.9969,-4.9969,-5.0022,-5.004,-5.0055,-5.0066,-5.0124,-5.0148,-4.99,-4.99,-4.99,0,0,-4.9681,-4.9684,-4.9716,-4.9759,-4.9768,-4.9818,-4.9732,-4.9788,-4.9825,-4.9752,-4.9827,-4.9826,-4.9841,-4.9936,-4.9977,-4.9939,-5.0136,-5.0069,-5.0081,-5.0084,-5.0138,-5.0161,-5.0182,-4.9907,-4.9906,-4.9905,0,0,-4.9832,-4.9839,-4.9912,-4.9924,-4.994,-4.9925,-4.9944,-4.9947,-4.9944,-5.002,-4.9966,-5.001,-5.0082,-5.0095,-5.0111,-5.0273,-5.0228,-5.0286,-5.0381,-5.0438,-5.0457,-5.0474,-5.0531,-5.0552,-5.0298,-5.0299,-5.0299,0,-4.9915,-4.9989,-4.9955,-5.0016,-5.0037,-4.9975,-5.0049,-5.0063,-5.0089,-5.0105,-5.0063,-5.0153,-5.0158,-5.0256,-5.0296,-5.0311,-5.033,-5.0283,-5.0458,-5.0474,-5.049,-5.0543,-5.0565,-5.0305,-5.0305,-5.0304,-5.0303,0,-5.009,-5.0143,-5.02,-5.0229,-5.0257,-5.0325,-5.0301,-5.0334,-5.0307,-5.0297,-5.0376,-5.0382,-5.0419,-5.0442,-5.0415,-5.0537,-5.0512,-5.0465,-5.0387,-5.0521,-5.057,-5.0591,-5.0315,-5.0313,-5.0311,-5.0309,0,0,-5.0299,-5.0312,-5.0334,-5.0347,-5.0362,-5.0402,-5.0468,-5.0506,-5.0535,-5.0557,-5.0611,-5.0676,-5.0633,-5.0651,-5.0626,-5.0677,-5.0805,-5.0623,-5.0623,-5.0655,-5.0939,-5.0973,-5.0997,-5.0777,-5.0781,-5.0784,-5.0937,0,-5.0446,-5.0559,-5.0533,-5.0644,-5.0692,-5.0638,-5.0695,-5.0711,-5.0706,-5.0746,-5.074,-5.0786,-5.0726,-5.0737,-5.0785,-5.0779,-5.0861,-5.0768,-5.0826,-5.0828,-5.0821,-5.1023,-5.1058,-5.1203,-5.0957,-5.096,-5.0962,0,-5.0631,-5.0663,-5.078,-5.0789,-5.0809,-5.0861,-5.0895,-5.0935,-5.0953,-5.0946,-5.0969,-5.0935,-5.1001,-5.0927,-5.1017,-5.0955,-5.0978,-5.0979,-5.0984,-5.0985,-5.0901,-5.1028,-5.1248,-5.1269,-5.0993,-5.099,-5.0988,0,-5.0771,-5.0842,-5.0921,-5.0935,-5.0949,-5.0987,-5.0994,-5.1008,-5.1034,-5.1065,-5.1081,-5.1119,-5.1139,-5.117,-5.1148,-5.1096,-5.1243,-5.1165,-5.1237,-5.1238,-5.1267,-5.1265,-5.1491,-5.1287,-5.1287,-5.1286,-5.1286,0,-5.0936,-5.1009,-5.0984,-5.1033,-5.1114,-5.1085,-5.1166,-5.1167,-5.1181,-5.1229,-5.1185,-5.1231,-5.1201,-5.1245,-5.1229,-5.1306,-5.1316,-5.1312,-5.1306,-5.1314,-5.1314,-5.1326,-5.1314,-5.1292,-5.1291,-5.129,-5.1289,0,-5.1103,-5.1089,-5.1172,-5.118,-5.1184,-5.1243,-5.125,-5.1295,-5.1289,-5.135,-5.1363,-5.1352,-5.1402,-5.1385,-5.1438,-5.1427,-5.1526,-5.1508,-5.1519,-5.1514,-5.1586,-5.1579,-5.1826,-5.1856,-5.1635,-5.1637,-5.1639,0,-5.1207,-5.1263,-5.1278,-5.1308,-5.1319,-5.1367,-5.1394,-5.1369,-5.1399,-5.1426,-5.1469,-5.1515,-5.1551,-5.1634,-5.163,-5.1671,-5.1653,-5.1737,-5.1658,-5.1666,-5.1652,-5.1649,-5.1654,-5.1751,-5.1754,-5.1756,-5.1758,0,-5.1395,-5.1386,-5.1427,-5.1467,-5.15,-5.153,-5.1556,-5.1583,-5.1559,-5.1596,-5.1647,-5.1675,-5.1731,-5.1778,-5.1816,-5.1824,-5.1787,-5.1783,-5.1802,-5.1809,-5.1813,-5.181,-5.1559,-5.1776,-5.1775,-5.1773,-5.1772,-5.1771,-5.1532,-5.1579,-5.1598,-5.1646,-5.1663,-5.1689,-5.1733,-5.1733,-5.1776,-5.182,-5.1803,-5.1863,-5.1882,-5.193,-5.1944,-5.199,-5.1958,-5.1985,-5.1991,-5.1998,-5.2006,-5.1809,-5.1997,-5.1997,-5.1996,-5.1996,-5.1995,0,-5.1715,-5.1726,-5.177,-5.1809,-5.1847,-5.1813,-5.184,-5.1874,-5.1927,-5.1949,-5.1986,-5.2047,-5.2093,-5.2096,-5.214,-5.2176,-5.2161,-5.2189,-5.2184,-5.2187,-5.2033,-5.2012,-5.2201,-5.22,-5.22,-5.22,-5.22,-5.22,-5.1815,-5.1893,-5.1888,-5.1976,-5.1986,-5.2044,-5.2063,-5.2088,-5.2105,-5.2175,-5.2214,-5.2216,-5.2231,-5.2276,-5.2318,-5.2317,-5.2335,-5.2369,-5.2362,-5.2218,-5.2197,-5.2178,-5.2157,-5.2373,-5.2373,-5.2511,-5.2512,-5.2513]},{"header":{"parameterUnit":"m.s-1","parameterCategory":1,"la1":30.2991,"la2":30.254,"lo1":-89.0895,"lo2":-89.0444,"dy":0.0017,"dx":0.0017,"nx":28,"ny":28,"refTime":"2023-10-26T03:00:00:Z","depth":0,"parameterNumber":3,"parameterNumberName":"V-component_of_WINDS"},"data":[0,0,0,0,0,0,0,0,0,0,0,0,0,0,0,0,0,0,0,0,0,0,0,0,0,0,0,0,0,0,0,0,0,0,0,0,0,0,0,0,0,0,0,0,0,0,0,0,0,0,0,0,0,0,0,0,0,0,1.2298,1.2298,0,1.2323,1.2324,1.2324,1.2287,1.2285,1.2284,1.2283,1.2309,1.231,1.2312,0,0,0,0,0,0,0,0,0,0,0,0,0,1.2219,1.2221,1.2298,1.2298,1.2298,1.2323,1.2324,1.2324,1.2287,1.2285,1.2284,1.2282,1.2308,1.231,1.2312,0,0,0,0,0,0,0,0,0,0,0,0,0,1.225,1.2221,1.2298,1.2283,1.2282,1.2323,1.2324,1.2324,1.2287,1.2285,1.2283,1.2282,1.2307,1.231,1.2313,1.2369,0,0,1.2321,1.2323,0,0,0,0,0,0,0,0,1.2248,1.2253,1.2285,1.2284,1.2283,1.23,1.2305,1.2339,1.2288,1.2285,1.2283,1.2281,1.2307,1.231,1.2319,1.2371,1.2372,1.2322,1.2323,1.2325,1.2325,0,0,0,0,0,0,0,1.2246,1.2252,1.2308,1.2285,1.2284,1.2276,1.2278,1.2312,1.2307,1.2285,1.2283,1.2286,1.2306,1.2316,1.2319,1.2372,1.2322,1.2324,1.2326,1.2327,1.2475,1.2477,0,0,0,0,0,0,1.2246,1.225,1.2307,1.2309,1.226,1.2279,1.2281,1.2296,1.2306,1.2306,1.2288,1.2284,1.2312,1.2316,1.232,1.239,1.2325,1.2327,1.2329,1.2473,1.2476,1.2478,0,0,0,0,0,0,1.2244,1.2251,1.2306,1.2279,1.2285,1.2282,1.23,1.2298,1.2308,1.2308,1.2307,1.2299,1.2311,1.2316,1.2358,1.239,1.2329,1.2331,1.247,1.2474,1.2477,1.2528,0,0,0,0,0,0,1.2242,1.2251,1.2272,1.2279,1.2287,1.2343,1.2301,1.23,1.2313,1.2309,1.2318,1.2318,1.231,1.2354,1.2361,1.2393,1.2333,1.2468,1.2472,1.2476,1.2523,1.2532,1.254,0,0,0,0,0,1.2239,1.2284,1.2273,1.228,1.2313,1.2345,1.2349,1.2339,1.2316,1.2337,1.2338,1.2318,1.2385,1.2359,1.2366,1.2399,1.2466,1.2471,1.2476,1.2519,1.253,1.254,0,0,0,0,0,0,1.2279,1.2284,1.2272,1.232,1.2333,1.2339,1.2365,1.2351,1.237,1.2365,1.2351,1.2354,1.24,1.2403,1.2374,1.2456,1.2422,1.2428,1.2452,1.2463,1.2471,1.247,1.2336,0,0,0,0,0,1.2293,1.2319,1.2323,1.2365,1.2372,1.2368,1.2382,1.2373,1.2385,1.239,1.2394,1.2406,1.2431,1.2447,1.2469,1.2523,1.2526,1.255,1.2558,1.2565,1.2572,1.2604,1.2615,1.2495,1.2495,1.2495,0,0,1.2323,1.2329,1.2346,1.2373,1.2382,1.241,1.2372,1.2403,1.2424,1.2394,1.2435,1.2439,1.2452,1.2502,1.2524,1.2506,1.2606,1.2572,1.2577,1.258,1.261,1.2622,1.2632,1.2498,1.2498,1.2497,0,0,1.2392,1.2399,1.2436,1.2446,1.246,1.2458,1.2467,1.2476,1.2478,1.2519,1.2498,1.2523,1.2564,1.2576,1.2587,1.2664,1.2648,1.2672,1.2717,1.2748,1.2758,1.2766,1.2796,1.2807,1.2678,1.2678,1.2678,0,1.2427,1.2468,1.2457,1.249,1.2504,1.248,1.2519,1.2529,1.2549,1.256,1.254,1.2594,1.2601,1.2654,1.2674,1.2683,1.2694,1.2671,1.2757,1.2766,1.2773,1.2802,1.2813,1.2681,1.2681,1.268,1.268,0,1.2513,1.2542,1.257,1.2592,1.2609,1.2645,1.264,1.2659,1.2649,1.265,1.2693,1.2701,1.2726,1.2738,1.2728,1.2791,1.2781,1.2759,1.2724,1.2788,1.2815,1.2825,1.2686,1.2684,1.2684,1.2683,0,0,1.2606,1.2623,1.2634,1.2645,1.266,1.2683,1.2719,1.2744,1.2761,1.2777,1.2808,1.2845,1.2827,1.284,1.2831,1.2859,1.2923,1.2835,1.2835,1.2853,1.2996,1.3013,1.3026,1.2912,1.2914,1.2915,1.2996,0,1.2677,1.2739,1.2731,1.2791,1.282,1.2799,1.283,1.2844,1.2846,1.2871,1.2872,1.29,1.2872,1.288,1.2907,1.291,1.2952,1.2904,1.2942,1.2944,1.2941,1.3039,1.3057,1.3132,1.3006,1.3008,1.3009,0,1.2767,1.2788,1.2851,1.2865,1.2877,1.2905,1.293,1.2953,1.2969,1.2968,1.2985,1.2973,1.301,1.2974,1.3027,1.2994,1.301,1.3014,1.3017,1.3021,1.2981,1.3048,1.3156,1.3168,1.3025,1.3023,1.3022,0,1.2832,1.2875,1.292,1.293,1.2946,1.2967,1.2975,1.2989,1.3006,1.3027,1.3038,1.3063,1.3078,1.3098,1.3093,1.3067,1.3149,1.3111,1.3151,1.3151,1.3169,1.3168,1.3283,1.3177,1.3176,1.3176,1.3176,0,1.2913,1.2953,1.295,1.2977,1.3022,1.3014,1.3059,1.3064,1.3078,1.3107,1.3089,1.3117,1.3109,1.3137,1.3133,1.3179,1.3185,1.3187,1.3186,1.319,1.319,1.32,1.3196,1.3179,1.3178,1.3178,1.3177,0,1.2993,1.2992,1.3039,1.3052,1.3057,1.309,1.3101,1.3128,1.3129,1.3166,1.3175,1.3177,1.3209,1.3207,1.3242,1.324,1.3298,1.3289,1.3293,1.3292,1.3332,1.3329,1.3459,1.3476,1.3357,1.3358,1.3359,0,1.3045,1.3076,1.3093,1.3112,1.3122,1.3151,1.3169,1.3163,1.3182,1.3204,1.3229,1.326,1.3284,1.3337,1.3342,1.337,1.3364,1.3407,1.3368,1.3372,1.3367,1.3367,1.3371,1.3416,1.3417,1.3418,1.3419,0,1.3139,1.3138,1.3164,1.3192,1.3214,1.3235,1.3254,1.327,1.3266,1.3289,1.3323,1.3342,1.338,1.3412,1.3439,1.3448,1.3434,1.3431,1.3442,1.3447,1.3449,1.3451,1.3316,1.3428,1.3427,1.3427,1.3426,1.3426,1.3208,1.3236,1.3254,1.3284,1.3299,1.3318,1.3345,1.335,1.3378,1.3409,1.3404,1.3442,1.346,1.3495,1.3507,1.3538,1.3522,1.3537,1.3542,1.3546,1.3552,1.3443,1.3542,1.3542,1.3542,1.3541,1.3541,0,1.3304,1.3315,1.3343,1.3372,1.3397,1.3382,1.3403,1.3425,1.3459,1.3477,1.3502,1.3542,1.3574,1.3582,1.3613,1.3636,1.3631,1.3645,1.3644,1.3647,1.3563,1.3551,1.3649,1.3649,1.3649,1.3649,1.3649,1.3649,1.3356,1.3404,1.3405,1.346,1.347,1.3509,1.3523,1.3541,1.3556,1.3601,1.3628,1.3634,1.3649,1.3681,1.371,1.3711,1.3724,1.3742,1.3741,1.3663,1.3652,1.3642,1.3631,1.3744,1.3744,1.3823,1.3824,1.3824]}]]